Location: STAR School
(35.3054°N, 111.2976°W)
Time: 16:04:54
(UTC-07:00)

deb Explorer IX - Pass Details

Date: 28 May 2019
Orbit: 537 x 1115 km, 38.8° (Epoch: 16 June)

Event Time Altitude Azimuth Distance (km) Brightness Sun altitude
Exits shadow 02:11:15 37° 47° (NE) 832 ? -27.7°
Drops below altitude 10° 02:14:01 10° 73° (ENE) 1,792 ? -27.4°
Sets 02:16:20 0° 78° (ENE) 2,711 ? -27.2°
